FW4441 Weather Reports


time (UTC)temp
C
wind
direction
speed
KPH
gust
KPH
rain 1hr
cm
rain 24hr
cm
rain mn
cm
humidity
%
barometer
mb
20260901224533 22 254 27.4 48.3 0.00 0.03 0.03 55 1006.8
20260901223030 22 266 25.7 49.9 0.00 0.03 0.03 55 1006.5
20260901220030 22 273 20.9 38.6 0.00 0.03 0.03 56 1006.6
20260901213030 22 261 20.9 43.5 0.03 0.03 0.03 56 1006.6
20260901211531 21 263 20.9 43.5 0.03 0.03 0.03 56 1006.7
20260901210105 22 260 27.4 41.8 0.03 0.03 0.00 55 1006.6
20260901204608 22 253 19.3 40.2 0.00 0.00 0.00 54 1006.9
20260901201529 22 263 17.7 33.8 0.00 0.00 0.00 55 1007.0
20260901200033 22 258 19.3 37.0 0.00 0.00 0.00 56 1007.1
20260901194604 22 260 20.9 37.0 0.00 0.00 0.00 56 1007.4
20260901193030 22 254 17.7 32.2 0.00 0.00 0.00 57 1007.6
20260901191648 21 262 19.3 37.0 0.00 0.00 0.00 57 1007.8
20260901190106 21 263 16.1 38.6 0.00 0.00 0.00 58 1008.0
20260901184533 21 264 14.5 24.1 0.00 0.00 0.00 59 1008.1
20260901183106 21 258 12.9 20.9 0.00 0.00 0.00 60 1008.2
20260901181530 20 258 16.1 33.8 0.00 0.00 0.00 61 1008.3
20260901180030 20 256 14.5 29.0 0.00 0.00 0.00 63 1008.5
20260901174607 20 257 14.5 27.4 0.00 0.00 0.00 64 1008.4
20260901173032 19 264 11.3 22.5 0.00 0.00 0.00 67 1008.5
20260901171530 17 258 12.9 24.1 0.00 0.00 0.00 71 1008.5
20260901170032 17 254 11.3 24.1 0.00 0.00 0.00 73 1008.4
20260901164530 16 256 9.7 24.1 0.00 0.00 0.00 75 1008.5
20260901161605 15 262 9.7 22.5 0.00 0.00 0.00 78 1008.5
20260901160106 15 269 8.0 14.5 0.00 0.00 0.00 79 1008.4
20260901154535 15 279 8.0 17.7 0.00 0.00 0.00 81 1008.3
20260901153041 13 284 6.4 12.9 0.00 0.00 0.00 82 1008.4
20260901150032 13 287 6.4 14.5 0.00 0.00 0.00 83 1008.2
20260901144645 13 296 4.8 11.3 0.00 0.00 0.00 83 1008.2
20260901143031 13 291 4.8 12.9 0.00 0.00 0.00 83 1008.1
20260901141530 13 292 6.4 14.5 0.00 0.00 0.00 83 1008.0
20260901140031 13 296 4.8 9.7 0.00 0.00 0.00 83 1007.7
20260901134531 13 315 4.8 12.9 0.00 0.00 0.00 83 1007.6
20260901130029 13 322 4.8 11.3 0.00 0.00 0.00 83 1007.2
20260901124531 13 336 3.2 11.3 0.00 0.00 0.00 81 1007.1
20260901123031 13 13 4.8 8.0 0.00 0.00 0.00 81 1007.1
20260901121533 13 24 4.8 9.7 0.00 0.00 0.00 80 1007.1
20260901120030 13 25 4.8 8.0 0.00 0.00 0.00 79 1007.0
20260901114531 13 26 4.8 9.7 0.00 0.00 0.00 78 1007.1
20260901113030 13 19 6.4 11.3 0.00 0.00 0.00 77 1007.0
20260901111531 13 24 8.0 11.3 0.00 0.00 0.00 76 1006.9
20260901110042 14 25 6.4 11.3 0.00 0.00 0.00 75 1006.9
20260901110032 14 23 8.0 12.9 0.00 0.00 0.00 74 1006.9
20260901103031 13 22 8.0 11.3 0.00 0.00 0.00 73 1006.8
20260901101530 13 18 4.8 11.3 0.00 0.00 0.00 72 1006.9
20260901100030 14 16 6.4 9.7 0.00 0.00 0.00 70 1006.8
20260901094531 14 12 6.4 9.7 0.00 0.00 0.00 69 1006.8
20260901093030 14 9 4.8 11.3 0.00 0.00 0.00 66 1006.8
20260901091531 13 10 6.4 11.3 0.00 0.00 0.00 63 1006.6
20260901090031 13 312 1.6 8.0 0.00 0.00 0.00 63 1006.6
20260901084540 13 270 0.0 1.6 0.00 0.00 0.00 64 1006.6
20260901083030 13 270 0.0 0.0 0.00 0.00 0.00 63 1006.8
20260901081532 13 270 0.0 1.6 0.00 0.00 0.00 62 1006.8
20260901080029 14 265 1.6 6.4 0.00 0.00 0.00 60 1006.6
20260901071529 15 21 6.4 9.7 0.00 0.00 0.00 54 1006.3
20260901070032 15 22 6.4 9.7 0.00 0.00 0.00 53 1006.2
20260901064532 16 9 6.4 9.7 0.00 0.00 0.00 50 1006.3
20260901061530 17 155 1.6 4.8 0.00 0.00 0.00 45 1006.4
20260901060032 17 157 1.6 4.8 0.00 0.00 0.00 44 1006.4
20260901054531 17 30 0.0 4.8 0.00 0.00 0.00 43 1006.4
20260901053031 18 64 1.6 4.8 0.00 0.00 0.00 41 1006.4
20260901044530 19 170 3.2 4.8 0.00 0.00 0.00 40 1006.2
20260901043029 20 151 3.2 6.4 0.00 0.00 0.00 41 1006.1
20260901040030 19 23 3.2 6.4 0.00 0.00 0.00 42 1005.8
20260901034532 19 354 6.4 8.0 0.00 0.00 0.00 41 1005.6
20260901033033 20 4 4.8 9.7 0.00 0.00 0.00 37 1005.3
20260901031531 21 134 1.6 4.8 0.00 0.00 0.00 35 1005.2
20260901030029 22 176 3.2 6.4 0.00 0.00 0.00 33 1005.0
20260901024532 23 120 0.0 4.8 0.00 0.00 0.00 31 1004.9
20260901023030 23 112 1.6 4.8 0.00 0.00 0.00 30 1004.7
20260901021529 24 111 1.6 4.8 0.00 0.00 0.00 31 1004.7
20260901020116 24 95 1.6 6.4 0.00 0.00 0.00 32 1004.8
20260901014607 25 341 1.6 4.8 0.00 0.00 0.00 32 1004.7
20260901013029 27 273 4.8 6.4 0.00 0.00 0.00 32 1004.8
20260901011529 28 207 3.2 6.4 0.00 0.00 0.00 26 1004.8
20260901010031 28 51 3.2 11.3 0.00 0.00 0.00 23 1004.9
20260901003108 28 34 8.0 16.1 0.00 0.00 0.00 24 1005.1
20260901001528 28 39 6.4 12.9 0.00 0.00 0.00 25 1005.3
20260901000111 28 37 11.3 19.3 0.00 0.00 0.00 25 1005.4
20260831234530 29 33 11.3 19.3 0.00 0.00 0.00 25 1005.5
20260831233032 30 39 11.3 19.3 0.00 0.00 0.00 24 1005.6
20260831231534 30 43 9.7 22.5 0.00 0.00 0.00 24 1005.9